| time (UTC) | temp F | wind direction | speed MPH | gust MPH | rain 1hr in | rain 24hr in | rain mn in | humidity % | barometer mb |
| 20260505033555 | 47 | 0 | 2.0 | 5.0 | 0.00 | 0.00 | 0.00 | 95 | 1011.5 |
| 20260505032205 | 47 | 0 | 2.0 | 5.0 | 0.00 | 0.00 | 0.00 | 95 | 1011.5 |
| 20260505030830 | 47 | 0 | 2.0 | 5.0 | 0.00 | 0.00 | 0.00 | 95 | 1011.5 |
| 20260505025418 | 48 | 315 | 3.0 | 5.0 | 0.00 | 0.00 | 0.00 | 96 | 1011.7 |
| 20260505024045 | 48 | 315 | 3.0 | 5.0 | 0.00 | 0.00 | 0.00 | 96 | 1011.7 |
| 20260505022715 | 49 | 0 | 2.0 | 4.0 | 0.00 | 0.00 | 0.00 | 94 | 1011.6 |
| 20260505021425 | 49 | 0 | 2.0 | 4.0 | 0.00 | 0.00 | 0.00 | 94 | 1011.6 |
| 20260505020015 | 50 | 315 | 2.0 | 7.0 | 0.00 | 0.00 | 0.00 | 92 | 1012.0 |
| 20260505014709 | 50 | 315 | 2.0 | 7.0 | 0.00 | 0.00 | 0.00 | 92 | 1012.0 |
| 20260505013400 | 53 | 315 | 6.0 | 7.0 | 0.00 | 0.00 | 0.00 | 91 | 1012.0 |
| 20260505012050 | 53 | 315 | 6.0 | 7.0 | 0.00 | 0.00 | 0.00 | 91 | 1012.0 |
| 20260505010715 | 53 | 315 | 6.0 | 7.0 | 0.00 | 0.00 | 0.00 | 91 | 1012.0 |
| 20260505005405 | 54 | 315 | 5.0 | 8.0 | 0.00 | 0.00 | 0.00 | 87 | 1012.4 |
| 20260505004040 | 54 | 315 | 5.0 | 8.0 | 0.00 | 0.00 | 0.00 | 87 | 1012.4 |
| 20260505002600 | 54 | 315 | 5.0 | 8.0 | 0.00 | 0.00 | 0.00 | 87 | 1012.4 |
| 20260505001145 | 54 | 315 | 5.0 | 8.0 | 0.00 | 0.00 | 0.00 | 87 | 1012.4 |
| 20260504235805 | 56 | 270 | 4.0 | 8.0 | 0.00 | 0.00 | 0.00 | 78 | 1012.7 |
| 20260504234349 | 56 | 270 | 4.0 | 8.0 | 0.00 | 0.00 | 0.00 | 78 | 1012.7 |
| 20260504233011 | 56 | 270 | 4.0 | 8.0 | 0.00 | 0.00 | 0.00 | 78 | 1012.7 |
| 20260504231640 | 56 | 270 | 4.0 | 8.0 | 0.00 | 0.00 | 0.00 | 78 | 1012.7 |
| 20260504230329 | 56 | 270 | 4.0 | 8.0 | 0.00 | 0.00 | 0.00 | 78 | 1012.7 |
| 20260504225020 | 56 | 270 | 4.0 | 8.0 | 0.00 | 0.00 | 0.00 | 78 | 1012.7 |
| 20260504223815 | 56 | 270 | 4.0 | 8.0 | 0.00 | 0.00 | 0.00 | 78 | 1012.7 |
| 20260504222449 | 58 | 270 | 4.0 | 8.0 | 0.00 | 0.00 | 0.00 | 74 | 1012.5 |
| 20260504221110 | 58 | 270 | 4.0 | 8.0 | 0.00 | 0.00 | 0.00 | 74 | 1012.5 |
| 20260504215720 | 58 | 270 | 4.0 | 8.0 | 0.00 | 0.00 | 0.00 | 74 | 1012.5 |
| 20260504214440 | 58 | 270 | 4.0 | 8.0 | 0.00 | 0.00 | 0.00 | 74 | 1012.5 |
| 20260504213204 | 58 | 270 | 4.0 | 8.0 | 0.00 | 0.00 | 0.00 | 74 | 1012.5 |
| 20260504211929 | 58 | 270 | 4.0 | 8.0 | 0.00 | 0.00 | 0.00 | 74 | 1012.5 |
| 20260504210558 | 58 | 270 | 4.0 | 8.0 | 0.00 | 0.00 | 0.00 | 71 | 1012.2 |
| 20260504205205 | 58 | 270 | 4.0 | 8.0 | 0.00 | 0.00 | 0.00 | 71 | 1012.2 |
| 20260504203915 | 58 | 270 | 4.0 | 8.0 | 0.00 | 0.00 | 0.00 | 71 | 1012.2 |
| 20260504202615 | 62 | 270 | 4.0 | 13.0 | 0.00 | 0.00 | 0.00 | 62 | 1011.5 |
| 20260504201240 | 62 | 270 | 4.0 | 13.0 | 0.00 | 0.00 | 0.00 | 62 | 1011.5 |
| 20260504195915 | 62 | 270 | 4.0 | 13.0 | 0.00 | 0.00 | 0.00 | 62 | 1011.5 |
| 20260504194659 | 62 | 270 | 4.0 | 13.0 | 0.00 | 0.00 | 0.00 | 62 | 1011.5 |
| 20260504193402 | 65 | 270 | 9.0 | 17.0 | 0.00 | 0.00 | 0.00 | 52 | 1011.3 |
| 20260504192020 | 65 | 270 | 9.0 | 17.0 | 0.00 | 0.00 | 0.00 | 52 | 1011.3 |
| 20260504190700 | 65 | 270 | 9.0 | 17.0 | 0.00 | 0.00 | 0.00 | 52 | 1011.3 |
| 20260504185345 | 65 | 270 | 9.0 | 17.0 | 0.00 | 0.00 | 0.00 | 52 | 1011.3 |
| 20260504184135 | 65 | 270 | 9.0 | 17.0 | 0.00 | 0.00 | 0.00 | 52 | 1011.3 |
| 20260504182900 | 67 | 225 | 7.0 | 14.0 | 0.00 | 0.00 | 0.00 | 41 | 1011.2 |
| 20260504181520 | 67 | 225 | 7.0 | 14.0 | 0.00 | 0.00 | 0.00 | 41 | 1011.2 |
| 20260504180140 | 69 | 270 | 4.0 | 7.0 | 0.00 | 0.00 | 0.00 | 40 | 1010.7 |
| 20260504174825 | 69 | 270 | 4.0 | 7.0 | 0.00 | 0.00 | 0.00 | 40 | 1010.7 |
| 20260504173435 | 69 | 270 | 4.0 | 7.0 | 0.00 | 0.00 | 0.00 | 40 | 1010.7 |
| 20260504171945 | 69 | 270 | 4.0 | 7.0 | 0.00 | 0.00 | 0.00 | 40 | 1010.7 |
| 20260504170635 | 69 | 270 | 4.0 | 7.0 | 0.00 | 0.00 | 0.00 | 40 | 1010.7 |
| 20260504150420 | 71 | 270 | 4.0 | 8.0 | 0.00 | 0.00 | 0.00 | 39 | 1010.7 |
| 20260504141115 | 71 | 270 | 4.0 | 8.0 | 0.00 | 0.00 | 0.00 | 39 | 1010.7 |
| 20260504130435 | 72 | 45 | 5.0 | 12.0 | 0.00 | 0.00 | 0.00 | 33 | 1011.2 |
| 20260504110229 | 66 | 180 | 3.0 | 7.0 | 0.00 | 0.00 | 0.00 | 50 | 1013.3 |
| 20260504081756 | 63 | 135 | 3.0 | 6.0 | 0.00 | 0.00 | 0.00 | 60 | 1014.3 |
| 20260504080405 | 61 | 135 | 2.0 | 5.0 | 0.00 | 0.00 | 0.00 | 65 | 1014.5 |
| 20260504050504 | 49 | 315 | 2.0 | 6.0 | 0.00 | 0.00 | 0.00 | 90 | 1015.9 |
| 20260504045120 | 49 | 315 | 2.0 | 6.0 | 0.00 | 0.00 | 0.00 | 90 | 1015.9 |
| 20260504043735 | 49 | 315 | 2.0 | 6.0 | 0.00 | 0.00 | 0.00 | 90 | 1015.9 |
| 20260504042425 | 48 | 0 | 2.0 | 4.0 | 0.00 | 0.00 | 0.00 | 90 | 1016.0 |
| 20260504041048 | 48 | 0 | 2.0 | 4.0 | 0.00 | 0.00 | 0.00 | 90 | 1016.0 |
| 20260504035720 | 49 | 45 | 2.0 | 4.0 | 0.00 | 0.00 | 0.00 | 88 | 1016.2 |